Winona, MN

4:33 PM CDT on March 30, 2017 (GMT -0500)
Winona Municipal-Conrad

Weather History for KONA - August, 2014

Change the Weather History Date:

Friday, August 15, 2014

  Actual Average Record
Temperature  
Mean Temperature 68 °F -  
Max Temperature 80 °F 80 °F 96 °F (2003)
Min Temperature 55 °F 57 °F 49 °F (1992)
Cooling Degree Days 2    
Growing Degree Days 18 (Base 50)    
Moisture  
Dew Point 59 °F    
Average Humidity 71    
Maximum Humidity 94    
Minimum Humidity 51    
Precipitation  
Precipitation 0.00 in - - ()
Sea Level Pressure  
Sea Level Pressure 29.98 in    
Wind  
Wind Speed 2 mph (SSW)    
Max Wind Speed 10 mph    
Max Gust Speed -    
Visibility 10 miles    
Events      
Averages and records for this station are not official NWS values.
T = Trace of Precipitation, MM = Missing Value Source: NWS Daily Summary

Daily Weather History Graph

Daily Weather History Graph

Search for Another Location

Airport or City:

Trip Planner

Search our weather history database for the weather conditions in past years. The results will help you decide how hot, cold, wet, or windy it might be!

Date:

Astronomy

Aug. 15, 2014 Rise Set
Actual Time 6:10 AM CDT 8:11 PM CDT
Civil Twilight 5:39 AM CDT 8:42 PM CDT
Nautical Twilight 5:00 AM CDT 9:20 PM CDT
Astronomical Twilight 4:18 AM CDT 10:02 PM CDT
Moon 10:59 PM CDT (8/15) 12:07 PM CDT (8/15)
Length of Visible Light 15h 03m
Length of Day
14h 00m
Waning Gibbous, 69% of the Moon is Illuminated
Aug 15
Waning Gibbous
Aug 17
Last Quarter
Aug 25
New
Sep 2
First Quarter
Sep 8
Full

Hourly Weather History & Observations

Time (CDT) Temp. Heat Index Dew Point Humidity Pressure Visibility Wind Dir Wind Speed Gust Speed Precip Events Conditions
12:16 AM 60.8 °F - 55.4 °F 82% 30.04 in 10.0 mi Calm Calm - N/A   Scattered Clouds
12:36 AM 60.8 °F - 53.6 °F 77% 30.04 in 10.0 mi Calm Calm - N/A   Scattered Clouds
12:56 AM 60.8 °F - 55.4 °F 82% 30.04 in 10.0 mi Calm Calm - N/A   Clear
1:16 AM 60.8 °F - 55.4 °F 82% 30.04 in 10.0 mi Calm Calm - N/A   Mostly Cloudy
1:36 AM 60.8 °F - 55.4 °F 82% 30.04 in 10.0 mi Calm Calm - N/A   Scattered Clouds
1:56 AM 60.8 °F - 55.4 °F 82% 30.04 in 10.0 mi Calm Calm - N/A   Scattered Clouds
2:16 AM 59.0 °F - 53.6 °F 82% 30.03 in 10.0 mi SSE 3.5 mph - N/A   Scattered Clouds
2:36 AM 59.0 °F - 53.6 °F 82% 30.03 in 10.0 mi Calm Calm - N/A   Scattered Clouds
2:56 AM 59.0 °F - 55.4 °F 88% 30.02 in 10.0 mi Calm Calm - N/A   Mostly Cloudy
3:16 AM 59.0 °F - 55.4 °F 88% 30.02 in 10.0 mi Calm Calm - N/A   Scattered Clouds
3:36 AM 59.0 °F - 55.4 °F 88% 30.02 in 10.0 mi Calm Calm - N/A   Clear
3:56 AM 59.0 °F - 55.4 °F 88% 30.02 in 10.0 mi Calm Calm - N/A   Clear
4:16 AM 59.0 °F - 55.4 °F 88% 30.03 in 10.0 mi Calm Calm - N/A   Clear
4:36 AM 59.0 °F - 55.4 °F 88% 30.02 in 10.0 mi Calm Calm - N/A   Clear
4:56 AM 59.0 °F - 55.4 °F 88% 30.03 in 10.0 mi Calm Calm - N/A   Clear
5:16 AM 59.0 °F - 55.4 °F 88% 30.03 in 10.0 mi Calm Calm - N/A   Clear
5:36 AM 59.0 °F - 55.4 °F 88% 30.03 in 10.0 mi Calm Calm - N/A   Clear
5:56 AM 59.0 °F - 55.4 °F 88% 30.04 in 10.0 mi Calm Calm - N/A   Clear
6:16 AM 55.4 °F - 53.6 °F 94% 30.03 in 10.0 mi SE 3.5 mph - N/A   Clear
6:36 AM 55.4 °F - 53.6 °F 94% 30.03 in 10.0 mi Calm Calm - N/A   Scattered Clouds
6:56 AM 59.0 °F - 55.4 °F 88% 30.03 in 10.0 mi SE 3.5 mph - N/A   Scattered Clouds
7:16 AM 59.0 °F - 55.4 °F 88% 30.02 in 10.0 mi SE 3.5 mph - N/A   Clear
7:36 AM 60.8 °F - 55.4 °F 82% 30.02 in 10.0 mi SE 5.8 mph - N/A   Clear
7:56 AM 60.8 °F - 55.4 °F 82% 30.02 in 10.0 mi SE 5.8 mph - N/A   Clear
8:16 AM 62.6 °F - 55.4 °F 77% 30.02 in 10.0 mi ESE 5.8 mph - N/A   Clear
8:36 AM 62.6 °F - 55.4 °F 77% 30.02 in 10.0 mi ESE 5.8 mph - N/A   Clear
9:16 AM 69.8 °F - 59.0 °F 68% 30.02 in 10.0 mi SE 5.8 mph - N/A   Clear
9:36 AM 69.8 °F - 59.0 °F 68% 30.01 in 10.0 mi SE 5.8 mph - N/A   Clear
9:56 AM 69.8 °F - 57.2 °F 64% 30.01 in 10.0 mi ESE 5.8 mph - N/A   Clear
10:16 AM 71.6 °F - 59.0 °F 64% 30.00 in 10.0 mi SE 5.8 mph - N/A   Clear
10:37 AM 73.4 °F - 60.8 °F 65% 30.00 in 10.0 mi East 5.8 mph - N/A   Scattered Clouds
10:56 AM 73.4 °F - 60.8 °F 65% 30.01 in 10.0 mi Calm Calm - N/A   Scattered Clouds
11:16 AM 73.4 °F - 60.8 °F 65% 30.01 in 10.0 mi South 3.5 mph - N/A   Overcast
11:37 AM 73.4 °F - 60.8 °F 65% 30.00 in 10.0 mi South 3.5 mph - N/A   Overcast
11:56 AM 77.0 °F - 62.6 °F 61% 29.99 in 10.0 mi SSE 6.9 mph - N/A   Mostly Cloudy
12:16 PM 78.8 °F - 62.6 °F 57% 29.99 in 10.0 mi South 3.5 mph - N/A   Mostly Cloudy
12:37 PM 77.0 °F - 62.6 °F 61% 29.98 in 10.0 mi SSW 5.8 mph - N/A   Mostly Cloudy
12:56 PM 78.8 °F - 64.4 °F 61% 29.97 in 10.0 mi South 3.5 mph - N/A   Mostly Cloudy
1:16 PM 78.8 °F - 62.6 °F 57% 29.97 in 10.0 mi SSW 4.6 mph - N/A   Mostly Cloudy
1:37 PM 78.8 °F - 62.6 °F 57% 29.96 in 10.0 mi SSW 5.8 mph - N/A   Mostly Cloudy
1:56 PM 80.6 °F 81.8 °F 62.6 °F 54% 29.96 in 10.0 mi SSW 5.8 mph - N/A   Mostly Cloudy
2:16 PM 78.8 °F - 62.6 °F 57% 29.95 in 10.0 mi SSW 6.9 mph - N/A   Scattered Clouds
2:36 PM 80.6 °F 81.8 °F 62.6 °F 54% 29.95 in 10.0 mi SW 8.1 mph - N/A   Scattered Clouds
2:56 PM 80.6 °F 81.8 °F 62.6 °F 54% 29.94 in 10.0 mi SW 10.4 mph - N/A   Scattered Clouds
3:16 PM 80.6 °F 81.5 °F 60.8 °F 51% 29.94 in 10.0 mi WSW 9.2 mph - N/A   Scattered Clouds
3:36 PM 80.6 °F 81.8 °F 62.6 °F 54% 29.94 in 10.0 mi SW 9.2 mph - N/A   Clear
3:56 PM 80.6 °F 81.8 °F 62.6 °F 54% 29.93 in 10.0 mi WSW 8.1 mph - N/A   Scattered Clouds
4:16 PM 80.6 °F 81.8 °F 62.6 °F 54% 29.93 in 10.0 mi SSW 6.9 mph - N/A   Scattered Clouds
4:36 PM 78.8 °F - 60.8 °F 54% 29.92 in 10.0 mi SW 6.9 mph - N/A   Scattered Clouds
4:56 PM 78.8 °F - 60.8 °F 54% 29.92 in 10.0 mi SW 6.9 mph - N/A   Scattered Clouds
5:16 PM 80.6 °F 81.8 °F 62.6 °F 54% 29.92 in 10.0 mi SW 5.8 mph - N/A   Clear
5:36 PM 78.8 °F - 60.8 °F 54% 29.92 in 10.0 mi SW 5.8 mph - N/A   Clear
5:56 PM 78.8 °F - 60.8 °F 54% 29.92 in 10.0 mi SW 5.8 mph - N/A   Clear
6:16 PM 78.8 °F - 62.6 °F 57% 29.92 in 10.0 mi SW 4.6 mph - N/A   Clear
6:36 PM 78.8 °F - 62.6 °F 57% 29.92 in 10.0 mi SW 3.5 mph - N/A   Clear
6:56 PM 78.8 °F - 62.6 °F 57% 29.91 in 10.0 mi SW 3.5 mph - N/A   Clear
7:16 PM 77.0 °F - 60.8 °F 57% 29.91 in 10.0 mi SW 6.9 mph - N/A   Clear
7:36 PM 77.0 °F - 62.6 °F 61% 29.91 in 10.0 mi SSW 3.5 mph - N/A   Clear
7:56 PM 73.4 °F - 62.6 °F 69% 29.90 in 10.0 mi Calm Calm - N/A   Clear
8:16 PM 73.4 °F - 62.6 °F 69% 29.90 in 10.0 mi SSW 3.5 mph - N/A   Clear
8:36 PM 73.4 °F - 62.6 °F 69% 29.91 in 10.0 mi Calm Calm - N/A   Clear
8:56 PM 73.4 °F - 64.4 °F 73% 29.92 in 10.0 mi Calm Calm - N/A   Clear
9:16 PM 73.4 °F - 64.4 °F 73% 29.92 in 10.0 mi SW 3.5 mph - N/A   Clear
9:36 PM 71.6 °F - 62.6 °F 73% 29.92 in 10.0 mi SW 4.6 mph - N/A   Clear
9:56 PM 71.6 °F - 62.6 °F 73% 29.92 in 10.0 mi SW 3.5 mph - N/A   Clear
10:16 PM 71.6 °F - 62.6 °F 73% 29.92 in 10.0 mi SW 3.5 mph - N/A   Clear
10:36 PM 71.6 °F - 62.6 °F 73% 29.92 in 10.0 mi SW 4.6 mph - N/A   Clear
10:56 PM 69.8 °F - 62.6 °F 78% 29.91 in 10.0 mi SW 4.6 mph - N/A   Clear
11:16 PM 69.8 °F - 62.6 °F 78% 29.91 in 10.0 mi Calm Calm - N/A   Clear
11:36 PM 69.8 °F - 62.6 °F 78% 29.90 in 10.0 mi SSW 3.5 mph - N/A   Clear